Theta_e
321 322 322 322 322 322 322 322 322 322 322 322 323 323 322 322 321 316 306 314 318 339 329 314 309 307 306 304 307 301 294 291 296 307 312 316 314 320 328 324 329 333 332 335 337
321 321 322 321 321 321 321 321 321 321 321 322 322 322 321 321 313 311 323 337 341 340 308 306 303 304 301 299 300 298 294 298 303 312 313 317 315 318 320 323 324 327 330 331 332
321 321 321 321 321 320 320 320 321 321 321 321 321 321 322 320 309 312 339 343 341 335 307 306 306 304 298 298 299 297 304 318 319 317 319 318 316 321 321 318 325 322 325 328 327
320 321 321 320 320 320 320 320 320 321 321 321 321 321 322 316 298 310 345 344 342 312 306 304 303 299 296 297 300 298 316 322 323 325 323 320 323 321 321 322 330 330 330 325 323
319 320 320 320 320 319 319 319 320 320 320 320 320 322 315 305 308 328 345 341 313 308 305 304 301 300 296 298 299 297 310 324 322 321 321 322 319 318 318 324 326 325 324 323 323
319 319 319 319 319 319 318 318 318 318 319 319 321 322 312 299 311 327 318 313 309 306 305 304 303 302 299 298 299 308 322 320 318 319 320 317 317 318 320 323 321 322 322 322 322
318 318 319 319 319 318 318 317 316 317 320 320 322 320 312 304 317 319 313 310 311 309 305 306 306 303 302 299 302 318 313 315 313 311 315 317 312 315 321 322 320 321 321 322 321
318 318 318 318 318 318 318 317 317 320 321 321 324 316 303 313 316 314 313 313 312 311 309 309 306 303 300 300 300 298 300 303 311 312 313 313 306 319 323 319 317 319 320 320 320
319 318 318 318 318 318 317 316 319 323 323 324 316 313 306 318 312 312 313 310 311 311 310 314 306 301 301 296 293 294 291 297 307 314 313 312 310 315 322 318 316 317 318 319 319
318 317 317 317 317 316 315 316 318 320 321 321 319 307 308 308 313 311 309 311 309 307 306 305 300 296 294 293 290 292 292 296 305 310 311 310 310 315 319 318 316 317 317 318 319
318 317 316 316 316 315 311 304 302 301 303 300 303 307 308 313 316 309 309 308 309 305 299 302 297 293 295 296 296 297 295 299 307 313 311 308 311 314 318 318 317 318 316 317 318
317 317 317 316 315 314 307 302 302 303 296 306 305 305 310 311 307 311 311 304 303 299 303 298 296 300 301 300 298 298 305 305 309 313 310 308 307 311 316 318 319 317 315 317 319
316 316 316 316 314 308 305 306 306 303 296 303 306 305 305 308 306 308 310 305 302 300 299 297 300 304 302 300 299 297 303 306 305 309 310 306 303 307 311 318 321 321 319 320 320
315 315 315 314 305 304 303 309 308 305 294 301 304 305 306 308 306 313 311 307 301 299 300 299 302 303 302 301 300 294 307 311 308 304 297 305 294 301 308 310 315 319 320 319 317
315 316 315 314 303 302 304 308 310 306 285 307 302 306 303 305 306 307 313 307 300 302 301 300 300 301 300 301 303 299 312 310 309 298 302 303 297 299 307 305 307 314 320 316 312
315 315 314 308 303 306 308 307 306 294 287 303 302 300 299 303 305 307 308 309 307 302 300 299 303 303 302 305 304 307 304 299 298 298 294 299 299 299 303 307 309 315 319 312 309
315 315 312 312 300 304 307 306 294 289 303 300 299 298 298 299 301 303 303 300 299 294 293 299 300 304 306 300 303 300 294 288 288 293 292 302 301 301 312 312 312 313 310 308 308
312 311 309 311 307 307 305 300 285 298 302 306 304 299 297 299 300 302 300 297 301 298 295 293 295 301 305 301 299 298 296 291 286 290 293 303 297 301 316 316 307 306 306 307 305
310 306 304 305 310 307 301 291 290 298 305 303 302 296 296 299 299 299 300 299 301 301 295 294 299 305 305 304 302 298 295 298 295 296 293 296 302 310 315 305 304 304 304 303 304
305 301 302 306 311 305 297 291 296 306 305 304 297 300 293 295 296 296 299 304 303 303 301 300 296 304 305 305 305 301 303 294 292 290 287 295 299 299 307 301 302 301 301 302 303
302 299 304 308 308 301 290 292 300 307 308 303 300 300 299 297 298 297 300 303 306 305 304 303 299 300 303 299 298 299 297 295 294 296 291 290 294 310 306 302 300 303 301 303 301
300 294 307 308 297 295 293 299 303 306 310 307 305 302 301 302 298 301 302 306 312 309 304 303 298 295 297 304 304 300 298 295 291 290 294 293 292 302 301 302 303 301 303 303 303
297 299 310 308 293 293 297 301 304 303 305 305 302 304 305 302 298 304 305 309 309 308 304 304 295 293 296 300 302 300 300 297 296 297 294 290 290 301 303 302 302 301 304 302 303
298 294 300 302 300 296 296 298 299 308 307 306 302 303 303 302 304 301 303 308 310 311 316 308 297 296 294 298 298 298 300 299 297 294 294 294 292 295 298 300 301 303 301 300 302
297 294 299 294 297 297 297 299 298 299 305 305 302 304 303 300 303 302 304 306 310 314 308 301 296 297 298 303 302 300 302 302 299 298 295 295 294 296 298 300 301 301 301 303 303
296 296 299 298 299 298 297 297 299 301 302 302 302 306 305 302 305 303 303 303 305 307 303 302 296 295 296 301 303 300 302 302 300 299 298 297 294 298 301 301 300 301 302 302 303
301 302 302 299 298 295 297 299 300 303 305 306 305 306 305 308 311 310 306 306 307 303 301 300 296 292 291 299 299 294 299 300 299 299 298 292 295 300 299 299 299 299 301 302 304
Wind_Speed
16 17 17 18 18 19 19 20 20 21 19 18 18 17 16 14 12 3 5 8 5 11 6 6 1 3 3 2 3 5 6 2 4 7 5 1 4 5 4 7 11 7 8 9 9
17 17 18 18 19 19 19 21 22 21 20 18 18 16 14 11 2 6 9 11 9 13 5 5 4 2 3 1 1 5 5 4 3 5 7 6 2 6 6 12 14 16 15 12 10
17 17 18 19 21 21 20 21 23 21 19 17 17 16 12 6 3 5 4 9 13 11 4 2 5 2 3 3 3 4 6 7 3 4 10 8 5 3 12 7 3 10 12 12 12
17 20 20 22 23 24 24 22 23 21 18 17 16 13 9 3 3 1 7 13 13 6 4 4 4 4 4 3 2 5 10 8 7 9 12 13 12 9 7 5 7 7 9 16 15
17 20 22 23 23 24 25 24 23 22 18 16 13 9 4 2 8 5 14 14 8 6 7 5 2 4 4 3 4 2 7 13 15 8 14 19 15 13 13 10 9 12 15 17 14
17 19 21 24 25 26 26 25 23 21 17 13 9 3 3 2 1 8 11 7 6 6 5 6 6 4 2 1 6 4 19 15 8 9 14 28 14 5 6 7 14 14 13 14 15
16 19 22 24 26 27 27 27 26 22 16 10 6 3 0 11 4 7 9 6 6 5 4 5 5 2 2 3 6 15 13 6 2 1 17 12 9 5 8 8 13 15 12 13 13
16 18 21 23 26 28 27 28 25 20 5 5 6 2 7 3 4 5 4 4 5 5 3 5 3 3 2 3 6 7 7 6 4 6 5 5 5 5 5 13 11 11 11 11 7
15 17 20 23 25 27 30 26 17 5 7 7 2 1 8 3 3 4 6 1 6 3 6 4 1 2 6 6 5 6 6 4 4 3 1 6 10 5 5 9 9 8 8 10 6
16 17 20 23 26 28 31 24 5 3 4 4 3 2 4 3 4 3 3 3 2 2 7 3 5 4 5 5 6 4 5 2 6 3 2 14 12 8 5 3 5 6 6 8 7
16 18 20 23 26 28 16 6 10 8 8 4 7 4 6 7 5 4 5 5 1 4 2 4 5 5 7 8 4 6 0 4 1 6 7 9 14 6 2 7 5 2 6 6 7
16 17 21 23 26 24 4 7 3 6 13 8 15 8 9 2 5 4 5 5 3 2 1 6 6 8 7 5 5 6 6 2 3 9 7 2 8 5 5 5 2 5 7 6 3
15 17 20 25 29 4 3 3 1 2 4 10 6 6 5 10 7 6 8 4 3 1 3 5 6 4 5 6 2 6 9 11 8 7 7 4 6 3 5 4 2 5 7 5 5
14 16 17 27 6 6 5 6 5 1 4 9 4 8 5 6 4 7 7 6 2 7 6 5 6 4 4 7 9 2 13 15 17 7 6 2 4 4 3 2 2 5 6 6 8
13 14 14 6 5 4 6 10 10 3 5 2 3 0 2 9 3 3 5 3 5 5 4 6 3 6 4 7 7 8 18 18 10 8 7 2 6 2 3 2 4 3 6 7 9
13 12 12 2 2 8 10 10 3 6 6 4 4 4 4 1 2 5 4 2 4 5 3 9 5 4 9 6 5 16 9 5 4 5 6 3 4 3 2 6 4 3 5 12 14
14 13 8 2 6 1 6 5 5 3 6 6 4 2 4 4 3 3 4 5 6 2 3 6 5 5 5 3 3 7 7 3 3 6 4 3 6 4 6 5 5 7 10 12 10
15 18 6 6 4 0 4 5 2 4 3 5 4 3 6 6 4 6 6 5 3 3 1 1 7 4 4 6 8 3 8 7 4 4 2 6 3 3 3 8 15 14 13 12 9
15 4 5 5 9 3 6 2 7 4 3 7 7 4 3 4 4 5 7 7 7 10 8 4 5 5 3 4 6 3 4 5 9 3 5 2 0 2 6 12 11 13 12 9 7
4 5 6 3 11 4 5 6 5 4 6 4 4 2 5 2 4 4 6 5 6 12 4 3 0 3 2 6 7 6 6 4 4 6 3 4 4 5 8 11 11 10 9 7 7
3 5 5 7 4 6 4 7 7 7 4 3 3 6 0 3 7 5 3 4 8 4 9 4 4 5 5 5 3 4 3 8 8 4 6 5 5 7 11 14 13 11 7 9 7
2 3 3 3 5 1 3 6 6 6 2 7 4 5 3 4 2 5 6 4 1 6 6 1 6 4 1 6 3 4 4 5 7 2 3 4 5 6 12 13 13 9 8 8 7
0 4 4 4 3 3 6 5 4 4 4 4 3 4 1 4 3 3 2 3 4 3 6 5 3 4 6 7 7 7 4 5 7 4 1 6 5 6 11 11 7 10 10 7 6
2 3 5 4 1 5 3 6 4 4 7 7 5 4 3 3 3 5 3 3 3 4 7 9 4 6 9 7 6 5 3 4 7 4 5 4 7 7 8 12 9 10 8 7 7
1 4 2 2 3 3 3 4 5 6 4 4 3 4 2 4 5 3 2 2 5 2 5 6 4 2 3 6 7 4 6 6 5 6 5 9 11 12 13 14 12 10 8 9 8
2 0 4 3 3 4 5 6 8 6 4 3 1 6 5 4 5 4 5 2 3 6 5 4 2 3 9 7 11 8 6 10 6 8 10 8 5 4 6 7 9 10 10 10 9
2 2 2 3 3 2 4 6 7 0 7 6 4 3 5 5 7 8 2 4 5 6 3 4 5 4 3 7 8 5 4 3 4 3 14 7 7 11 11 12 11 9 9 11 10
Wind_Direction
337 330 329 329 327 324 322 319 322 322 319 326 324 321 322 320 306 153 232 207 175 151 153 119 199 148 88 120 153 116 60 26 177 147 188 191 98 12 39 53 49 55 72 99 135
330 330 326 325 326 320 321 322 319 319 323 330 320 322 324 320 280 234 248 152 123 155 124 148 143 116 45 339 125 100 97 224 209 148 140 102 86 122 83 58 67 79 73 80 77
330 327 326 328 324 322 323 323 315 319 324 321 322 322 316 303 301 247 172 145 160 166 121 138 118 114 91 221 191 124 154 140 58 149 139 115 81 70 112 63 65 98 87 68 57
331 332 332 328 327 324 323 321 314 313 320 319 320 317 319 256 124 79 112 129 133 140 111 125 87 113 113 187 248 96 130 113 114 126 136 133 132 99 90 135 131 106 96 80 70
332 331 328 325 324 321 319 316 310 313 314 311 313 313 300 352 254 104 107 117 118 129 167 150 137 163 148 222 122 110 104 122 105 139 120 112 98 96 99 111 102 94 83 91 92
330 327 324 322 322 320 316 313 311 309 305 301 300 299 284 311 197 135 120 113 141 155 185 153 190 205 182 21 83 49 114 105 98 139 108 111 135 116 130 133 114 104 105 106 101
324 324 323 323 321 318 317 315 314 309 298 283 256 215 196 238 18 148 130 154 185 184 184 206 169 62 131 29 121 127 97 98 180 167 113 86 28 87 133 131 129 121 116 104 111
324 325 321 319 317 316 317 315 313 309 284 219 198 219 249 255 124 128 148 192 197 224 256 174 179 199 195 134 48 101 80 139 223 223 186 107 106 112 90 141 134 128 122 122 131
324 322 318 318 318 318 315 314 310 45 105 148 148 109 278 321 254 189 166 189 146 196 250 254 139 128 30 90 28 20 169 161 178 354 106 85 145 131 28 144 139 137 135 134 135
324 324 322 320 321 322 320 309 247 169 170 196 244 18 291 299 298 191 191 79 350 338 345 68 50 67 36 69 212 168 99 220 173 214 106 100 91 92 41 104 112 145 165 145 160
325 326 324 324 324 324 337 9 10 350 31 272 268 279 275 298 282 253 145 114 110 63 320 349 54 221 239 212 147 105 151 153 249 30 72 88 96 63 58 99 106 188 193 184 173
326 328 328 328 323 322 325 67 81 252 304 263 243 244 251 60 300 316 117 129 131 221 46 11 258 222 229 221 157 152 117 86 37 19 86 180 104 135 114 99 161 179 191 169 150
329 331 332 331 321 29 304 81 30 255 258 296 223 215 194 149 211 251 146 146 124 246 193 185 246 16 190 265 224 204 165 184 151 109 57 131 29 100 83 92 74 66 154 107 105
329 332 339 331 50 322 307 341 333 228 17 281 265 264 147 161 258 201 179 137 159 218 212 230 271 239 287 244 152 256 177 156 146 126 153 82 181 334 11 147 78 89 89 93 120
327 330 341 350 290 322 279 333 319 82 355 230 216 4 166 148 221 245 147 85 183 223 126 251 275 322 309 238 150 211 151 159 142 93 102 330 77 293 348 121 194 165 120 97 68
323 327 344 348 297 249 320 309 41 42 266 324 143 140 96 210 272 4 132 110 162 233 296 250 234 229 221 265 186 128 104 60 41 92 58 291 134 286 220 219 170 145 118 101 103
317 314 307 185 245 28 334 18 38 141 311 350 288 161 139 184 245 166 186 157 162 151 266 323 261 245 170 187 60 73 62 29 23 45 174 272 68 231 292 217 166 148 103 119 108
316 311 252 212 239 306 30 45 178 262 290 291 321 116 169 157 240 202 142 177 251 101 96 180 335 179 178 165 163 79 134 149 186 156 215 5 55 283 341 59 89 96 109 110 106
315 327 274 253 188 131 73 78 217 229 292 330 332 100 249 206 179 189 169 191 199 170 178 177 269 271 224 125 111 188 67 157 108 55 78 177 171 17 96 98 94 107 109 107 108
343 340 263 228 144 86 78 239 257 258 344 327 335 196 188 224 165 159 180 202 205 195 149 257 330 3 360 53 41 124 154 77 29 131 123 220 200 196 172 136 136 126 118 113 99
28 346 259 166 117 57 183 237 274 264 33 313 328 309 186 281 190 191 199 287 206 155 151 167 106 305 42 21 187 30 61 60 107 100 146 158 251 187 169 161 145 138 129 128 122
51 310 310 80 74 96 198 206 291 307 114 264 216 233 208 275 255 167 199 241 355 146 164 161 111 83 74 307 45 95 92 99 115 209 69 119 265 341 134 141 141 140 134 126 121
260 266 308 111 155 259 279 261 271 284 257 266 276 228 261 250 223 140 154 326 25 112 161 177 48 84 349 355 3 52 28 98 100 97 180 133 238 99 115 118 124 132 134 128 122
70 308 312 36 122 150 301 285 251 244 258 245 265 275 308 302 264 161 131 13 29 73 70 86 105 153 182 187 137 99 76 88 106 107 154 184 153 155 148 141 144 145 143 142 141
115 252 222 262 280 198 205 278 305 322 293 344 15 350 360 316 346 93 104 93 27 67 52 84 94 119 10 108 97 109 122 113 99 152 141 176 167 168 173 168 159 152 147 139 148
187 80 335 282 287 179 185 265 238 242 248 279 45 316 270 222 213 251 149 121 171 29 66 8 80 56 43 85 107 90 87 90 65 106 72 116 92 141 117 127 146 160 158 158 161
275 295 121 287 303 112 218 257 284 84 262 223 317 319 308 305 262 243 190 94 129 115 103 73 117 94 115 129 107 59 207 142 117 86 135 153 198 146 150 163 166 163 161 161 161